Location: Ferques
(50.8300°N, 1.7599°E)
Time: 16:33:26
(UTC+00:00)

Meteor 2-9 Rocket - Pass Details

Date: 19 May 2025
Orbit: 791 x 893 km, 81.3° (Epoch: 12 June)

Event Time Altitude Azimuth Distance (km) Brightness Sun altitude
Rises 22:12:45 0° 347° (NNW) 3,398 9.0 -16.1°
Reaches altitude 10° 22:15:09 10° 347° (NNW) 2,475 7.9 -16.2°
Maximum altitude 22:20:47 87° 261° (W) 869 4.2 -16.5°
Enters shadow 22:24:09 26° 172° (S) 1,639 5.1 -16.7°
